Flag for South Korea Weather past 2 weeks in Seoul, South Korea

Now
54 °F

Passing clouds.


Feels Like: 50 °F
Forecast: 44 / 64 °F
Wind: 12 mph from East

Location: Seoul / Kimp'O International Airport

Current Time: Apr 1, 2015 at 11:58:33 PM

Latest Report: Apr 1, 2015 at 11:00 PM


Visibility: N/A

Pressure: 30.01 "Hg

Humidity: 44%

Dew point: 32 °F

Location of SeoulLocation

Historic Weather in Seoul — Graph

°F

Seoul temperature yesterday

Maximum temperature yesterday: 61 °F (at 12:00 PM)
Minimum temperature yesterday: 41 °F (at 5:00 AM)
Average temperature yesterday: 53 °F

Past Weeks' High & Low Weather Summary

 TemperatureHumidityPressure
High68 °F (Mar 20, 1:00 PM)94% (Apr 1, 3:00 AM)30.60 "Hg (Apr 1, 3:00 AM)
Low27 °F (Mar 24, 6:00 AM)4% (Mar 28, 5:00 PM)29.80 "Hg (Mar 18, 3:00 PM)
Average47 °F49%30.15 "Hg
* Reported Mar 17 10:00 PM — Apr 1 10:00 PM, Seoul, Weather by CustomWeather, © 2015

Note: Actual official high and low records may vary slightly from our data, if they occured in-between our weather recording intervals... More about our weather records

Advertising

Seoul weather history for previous 24 hours

 ConditionsComfort  
Time TempWeatherWind HumidityBarometerVisibility
10:00 PM
Wed, Apr 1
55 °FClear.10 mph44%30.01 "Hg10 mi
9:00 PM55 °FClear.9 mph41%30.01 "Hg10 mi
8:00 PM55 °FClear.9 mph44%30.01 "Hg10 mi
7:00 PM59 °FClear.9 mph36%30.01 "Hg10 mi
6:00 PM61 °FSunny.9 mph31%29.98 "Hg10 mi
5:00 PM63 °FSunny.12 mph32%29.95 "Hg10 mi
4:00 PM63 °FSunny.12 mph32%29.98 "Hg10 mi
3:00 PM63 °FPassing clouds.9 mph32%29.98 "HgN/A
2:00 PM61 °FScattered clouds.15 mph34%29.98 "HgN/A
1:00 PM59 °FPassing clouds.13 mph42%30.01 "HgN/A
12:00 PM59 °FScattered clouds.9 mph48%30.01 "HgN/A
11:00 AM54 °FBroken clouds.8 mph67%30.04 "HgN/A
10:00 AM52 °FBroken clouds.8 mph77%30.01 "Hg5 mi
9:00 AM52 °FFog.9 mph77%30.01 "Hg2 mi
8:00 AM50 °FFog.7 mph82%29.98 "Hg2 mi
7:00 AM52 °FFog.8 mph82%29.95 "Hg2 mi
6:00 AM52 °FFog.5 mph88%29.95 "Hg1 mi
5:00 AM52 °FFog.5 mph88%29.92 "Hg1 mi
4:00 AM52 °FFog.2 mph88%29.89 "Hg1 mi
3:00 AM52 °FFog.6 mph94%29.92 "Hg1 mi
2:00 AM54 °FLight rain. Fog.6 mph88%29.92 "Hg1 mi
1:00 AM54 °FLight rain. Fog.6 mph88%29.92 "Hg1 mi
12:00 AM54 °FFog.3 mph88%29.92 "Hg1 mi
11:00 PM
Tue, Mar 31
54 °FDrizzle. Fog.No wind88%29.92 "Hg1 mi
Weather by CustomWeather, © 2015

See weather overviewHow to use our weather pages